Starlink 32159

operational
NORAD ID: 60293 Int'l Des: 2024-132 Owner: SPXS Country: US Constellation: starlink
LEOCIRCULAR

About Starlink 32159

Description loading...

Live Position

Loading 3D Globe...

Upcoming Passes

Altitude History

Altitude vs Time

uPlot chart will show altitude changes over time

Two-Line Element Set

1 60293U 24132R 25353.93446863 .00000378 00000-0 24909-4 0 9999
2 60293 53.1613 62.5915 0001263 79.9236 280.1907 15.30190114 79353
Epoch: Dec 19, 2025 • Age: 8 hours

Current Status

Altitude 479.1 km
Velocity 7.63 km/s
Sub-Earth Point -13.78°S, 131.37°W
Launch Date Jul 28, 2024
Age 1.3 years
Type internet

Technical Details

Classification Payload
Mass 730.00 kg
Dry Mass 700.00 kg
Total Mass 730.00 kg
Length 0.30 m
Diameter 4.10 m
Span 29.00 m
Shape Box + pan
Manufacturer SPXS
Bus Type Starlink V2M
Phase Status In Orbit
Owner/State SPXS/US

Large Constellations

Loading constellations...